Location: Banff
(51.1670°N, 115.5670°W)
Time: 06:00:56
(UTC-07:00)

Amateur Radio Satellites - All Passes

Search period start: 17 January 2017 05:30
Search period end: 18 January 2017 05:30
Location: Banff, 51.1670°N, 115.5670°W

Satellite Date Start Highest point End Downlink Frequencies (MHz)
Time Altitude Azimuth
ISS 17 Jan 05:32:52 05:35:59 44° 205° (SSW) 05:39:06 145.825
CUTE-I 17 Jan 05:35:14 05:37:16 12° 84° (E) 05:39:19 437.470
GOMX 1 17 Jan 05:43:48 05:47:46 27° 92° (E) 05:51:30 467.674
CUSAT 1 17 Jan 05:51:08 05:55:50 30° 302° (WNW) 06:01:39 437.405
AIST 2 17 Jan 05:51:44 05:55:48 45° 237° (WSW) 05:59:51 435.215
HORYU 2 17 Jan 05:56:40 06:00:52 39° 98° (E) 06:05:03 437.375
DANDE 17 Jan 06:03:49 06:07:34 49° 291° (WNW) 06:12:37 436.750
STARS 17 Jan 06:07:27 06:09:42 14° 272° (W) 06:11:58 437.465
CUBESAT XI-V 17 Jan 06:07:46 06:10:43 16° 272° (W) 06:13:41 437.345
Cubesat XI-IV 17 Jan 06:15:27 06:19:52 26° 92° (E) 06:24:16 437.490
STRAND 1 17 Jan 06:19:19 06:24:06 42° 65° (ENE) 06:28:53 437.568
ITAMSAT 1 17 Jan 06:32:26 06:34:03 11° 313° (NW) 06:35:39 435.822/435.867
O/OREOS (USA 219) 17 Jan 06:33:32 06:35:15 12° 98° (E) 06:36:58 437.305
NOAA 15 17 Jan 06:37:44 06:42:45 40° 97° (E) 06:47:42 137.62
DOVE 4 17 Jan 06:41:56 06:45:59 38° 97° (E) 06:49:53 437.250
HO-68 17 Jan 06:41:59 06:45:06 13° 81° (E) 06:48:11 435.675
Cosmos 2499 17 Jan 06:48:07 06:55:07 45° 69° (ENE) 07:01:49 435.465 / 435.565
AO-7 17 Jan 06:50:52 06:57:54 31° 313° (NW) 07:04:54 29.400- 29.500
BRITE-PL 17 Jan 06:58:32 07:03:11 33° 297° (WNW) 07:07:29 437.365/2234.400
CINEMA 3 17 Jan 07:01:22 07:04:01 16° 89° (E) 07:06:40 145.822/145.860
LilacSat-2 17 Jan 07:04:28 07:08:21 79° 103° (ESE) 07:12:13 437.200
PCSat 17 Jan 07:07:30 07:10:36 15° 5° (N) 07:13:43 145.827
ISS 17 Jan 07:10:57 07:11:50 11° 223° (SW) 07:12:43 145.825
CUTE-I 17 Jan 07:12:57 07:18:18 72° 103° (ESE) 07:23:38 437.470
RS-15 17 Jan 07:17:23 07:29:29 53° 25° (NNE) 07:41:21 29.354- 29.394
GONETS M04 17 Jan 07:17:26 07:26:11 59° 73° (ENE) 07:34:53
GOMX 1 17 Jan 07:21:40 07:26:03 40° 293° (WNW) 07:30:08 467.674
NOAA 18 17 Jan 07:29:02 07:34:26 55° 102° (ESE) 07:39:46 137.9125
HORYU 2 17 Jan 07:33:28 07:37:18 29° 297° (WNW) 07:41:08 437.375
CUTE 1.7 + AOD 2 17 Jan 07:48:01 07:51:45 28° 94° (E) 07:55:28 437.475
Cubesat XI-IV 17 Jan 07:55:04 08:00:18 57° 292° (WNW) 08:05:31 437.490
STRAND 1 17 Jan 07:58:48 08:03:22 33° 265° (W) 08:07:59 437.568
O/OREOS (USA 219) 17 Jan 08:09:26 08:13:55 86° 120° (ESE) 08:18:26 437.305
PRISM 17 Jan 08:10:06 08:13:43 29° 64° (ENE) 08:17:20 437.425
CANX-2 17 Jan 08:16:08 08:20:25 59° 101° (E) 08:24:40 2200.000
NOAA 15 17 Jan 08:17:37 08:22:31 38° 297° (WNW) 08:27:23 137.62
DOVE 4 17 Jan 08:19:57 08:23:34 26° 297° (WNW) 08:27:04 437.250
CUBEBUG 2 17 Jan 08:20:14 08:23:52 26° 94° (E) 08:27:33 437.445
HO-68 17 Jan 08:27:14 08:34:22 61° 102° (ESE) 08:41:27 435.675
Oscar 11 17 Jan 08:31:52 08:33:57 13° 86° (E) 08:36:03 145.826/435.025
SEEDS 17 Jan 08:35:01 08:39:15 55° 100° (E) 08:43:25 437.485
CINEMA 3 17 Jan 08:37:28 08:41:35 61° 288° (WNW) 08:45:43 145.822/145.860
LilacSat-2 17 Jan 08:40:13 08:42:06 13° 302° (WNW) 08:44:00 437.200
Cosmos 2499 17 Jan 08:41:29 08:48:14 43° 272° (W) 08:54:46 435.465 / 435.565
AO-7 17 Jan 08:44:51 08:48:05 13° 339° (NNW) 08:51:20 29.400- 29.500
COMPASS 1 17 Jan 08:47:32 08:51:41 50° 99° (E) 08:55:47 437.405
SO-50 17 Jan 08:51:05 08:54:41 22° 115° (ESE) 08:58:15 436.795
PCSat 17 Jan 08:51:23 08:55:55 26° 30° (NNE) 09:00:27 145.827
CUTE-I 17 Jan 08:53:47 08:57:52 23° 303° (WNW) 09:01:58 437.470
UWE-3 17 Jan 08:56:10 09:00:12 38° 97° (E) 09:04:19 435.000/436.395/437.385
FUNcube-1 17 Jan 09:02:29 09:06:11 27° 94° (E) 09:09:56 145.935
AAUSAT CUBESAT 2 17 Jan 09:02:37 09:06:46 56° 100° (E) 09:10:52 437.432
UNISAT 6 17 Jan 09:02:44 09:06:28 31° 65° (ENE) 09:10:15 437.425
NOAA 18 17 Jan 09:10:10 09:14:50 29° 301° (WNW) 09:19:28 137.9125
GONETS M04 17 Jan 09:14:44 09:22:42 40° 276° (W) 09:30:40
TIGRISAT 17 Jan 09:16:59 09:20:56 38° 67° (ENE) 09:24:54 435.000
DELFI C3 17 Jan 09:18:08 09:20:00 13° 87° (E) 09:21:51 145.870
ZACube-1 17 Jan 09:23:08 09:27:18 45° 98° (E) 09:31:32 437.345
CUTE 1.7 + AOD 2 17 Jan 09:23:41 09:27:40 37° 293° (WNW) 09:31:38 437.475
RS-15 17 Jan 09:30:43 09:43:07 80° 234° (SW) 09:55:07 29.354- 29.394
ANTELSAT 17 Jan 09:31:01 09:35:11 55° 71° (ENE) 09:39:22 437.575/2403.000
Cubesat XI-IV 17 Jan 09:37:07 09:39:20 13° 312° (NW) 09:41:32 437.490
JAS-2 17 Jan 09:38:54 09:43:34 31° 58° (ENE) 09:48:41 435.910
QB50P1 17 Jan 09:41:49 09:42:59 11° 53° (NE) 09:44:10 145.935-145.965
POLYITAN 1 17 Jan 09:44:26 09:45:56 12° 54° (NE) 09:47:26 437.675
PRISM 17 Jan 09:45:06 09:48:55 35° 263° (W) 09:52:47 437.425
QB50P2 17 Jan 09:45:10 09:47:00 13° 55° (NE) 09:48:49 145.880/145.840
O/OREOS (USA 219) 17 Jan 09:50:48 09:53:57 19° 318° (NW) 09:57:08 437.305
CANX-2 17 Jan 09:52:47 09:55:54 20° 300° (WNW) 09:59:00 2200.000
CUBEBUG 2 17 Jan 09:56:39 10:00:36 39° 292° (WNW) 10:04:39 437.445
Oscar 11 17 Jan 10:06:19 10:10:43 83° 286° (WNW) 10:15:04 145.826/435.025
HUMSAT D 17 Jan 10:06:23 10:09:52 24° 93° (E) 10:13:20 437.325/437.525
POPSAT HIP 1 17 Jan 10:06:28 10:09:15 18° 59° (ENE) 10:12:03 437.405
SEEDS 17 Jan 10:11:26 10:14:36 21° 299° (WNW) 10:17:45 437.485
HO-68 17 Jan 10:15:22 10:21:49 37° 304° (NW) 10:28:14 435.675
DUCHIFAT 1 17 Jan 10:21:26 10:24:33 21° 61° (ENE) 10:27:40 145.980
COMPASS 1 17 Jan 10:23:42 10:26:56 22° 298° (WNW) 10:30:09 437.405
NANOSAT C BR1 17 Jan 10:24:46 10:28:07 24° 62° (ENE) 10:31:28 145.865
SO-50 17 Jan 10:30:04 10:34:45 71° 314° (NW) 10:39:24 436.795
UWE-3 17 Jan 10:32:55 10:36:34 28° 295° (WNW) 10:40:17 435.000/436.395/437.385
PCSat 17 Jan 10:34:36 10:40:05 85° 53° (NE) 10:45:32 145.827
FUNcube-1 17 Jan 10:38:31 10:42:31 39° 292° (WNW) 10:46:37 145.935
AAUSAT CUBESAT 2 17 Jan 10:38:50 10:41:53 20° 299° (WNW) 10:44:55 437.432
UNISAT 6 17 Jan 10:39:18 10:43:10 33° 264° (W) 10:47:04 437.425
DELFI C3 17 Jan 10:51:18 10:55:20 75° 286° (WNW) 10:59:18 145.870
TIGRISAT 17 Jan 10:54:10 10:57:45 26° 266° (W) 11:01:21 435.000
ZACube-1 17 Jan 10:59:53 11:03:24 25° 297° (WNW) 11:06:58 437.345
BY70-1 17 Jan 11:01:40 11:04:21 21° 93° (E) 11:06:59 436.1900
ANTELSAT 17 Jan 11:09:15 11:12:16 19° 270° (W) 11:15:18 437.575/2403.000
BUGSAT 1 17 Jan 11:10:19 11:13:35 24° 63° (ENE) 11:16:51 437.445
QB50P1 17 Jan 11:13:49 11:18:00 71° 72° (ENE) 11:22:12 145.935-145.965
POLYITAN 1 17 Jan 11:16:49 11:21:00 76° 73° (ENE) 11:25:13 437.675
QB50P2 17 Jan 11:17:54 11:22:07 82° 74° (ENE) 11:26:21 145.880/145.840
JAS-2 17 Jan 11:23:16 11:28:26 51° 261° (W) 11:34:09 435.910
CUBEBUG 1 17 Jan 11:23:54 11:26:10 14° 88° (E) 11:28:24 437.445
AISAT 17 Jan 11:31:49 11:33:03 11° 86° (E) 11:34:18 437.250
Cosmos 2491 17 Jan 11:32:12 11:37:38 17° 46° (NE) 11:43:03 435.465 / 435.565
ESTCUBE 1 17 Jan 11:36:51 11:40:51 29° 94° (E) 11:44:49 437.505/2401.250
POPSAT HIP 1 17 Jan 11:40:26 11:44:36 66° 257° (WSW) 11:48:48 437.405
HUMSAT D 17 Jan 11:41:36 11:45:39 43° 291° (WNW) 11:49:43 437.325/437.525
Oscar 11 17 Jan 11:44:04 11:46:10 13° 305° (NW) 11:48:16 145.826/435.025
RS-15 17 Jan 11:44:19 11:53:43 27° 260° (W) 12:02:54 29.354- 29.394
DUCHIFAT 1 17 Jan 11:55:50 11:59:55 52° 260° (W) 12:04:01 145.980
NANOSAT C BR1 17 Jan 11:59:37 12:03:38 44° 261° (W) 12:07:40 145.865
VELOX 1 17 Jan 12:03:43 12:07:07 21° 92° (E) 12:10:28 145.980
HO-68 17 Jan 12:05:14 12:07:35 12° 327° (NNW) 12:09:57 435.675
Gurwin Techsat 1B 17 Jan 12:07:42 12:11:34 21° 55° (NE) 12:15:27 435.225
SO-50 17 Jan 12:12:18 12:15:59 22° 337° (NNW) 12:19:38 436.795
PCSat 17 Jan 12:19:03 12:22:50 19° 253° (WSW) 12:26:36 145.827
Oscar 19 17 Jan 12:20:10 12:24:58 39° 64° (ENE) 12:29:48 437.125/150
AO-7 17 Jan 12:21:23 12:26:43 19° 34° (NE) 12:32:03 29.400- 29.500
DELFI C3 17 Jan 12:28:24 12:29:24 11° 305° (NW) 12:30:24 145.870
BY70-1 17 Jan 12:31:41 12:34:51 34° 292° (WNW) 12:37:56 436.1900
50 SAT 17 Jan 12:36:14 12:39:28 30° 97° (E) 12:42:39 437.505
BUGSAT 1 17 Jan 12:44:55 12:48:47 41° 261° (W) 12:52:38 437.445
DX 1 17 Jan 12:47:10 12:50:55 28° 95° (E) 12:54:39 434.975-435.025
QB50P1 17 Jan 12:51:53 12:54:15 15° 271° (W) 12:56:38 145.935-145.965
CUSAT 1 17 Jan 12:53:18 12:58:57 21° 52° (NE) 13:04:42 437.405
UKube-1 17 Jan 12:53:21 12:56:54 24° 94° (E) 13:00:24 .
POLYITAN 1 17 Jan 12:55:13 12:57:20 14° 272° (W) 12:59:28 437.675
QB50P2 17 Jan 12:56:39 12:58:30 13° 273° (W) 13:00:22 145.880/145.840
SPROUT 17 Jan 12:57:55 13:02:06 52° 100° (E) 13:06:15 437.525
ITAMSAT 1 17 Jan 12:58:13 13:00:54 14° 50° (NE) 13:03:34 435.822/435.867
CUBEBUG 1 17 Jan 12:58:39 13:03:01 79° 288° (WNW) 13:07:20 437.445
TISAT 1 17 Jan 13:04:46 13:05:51 11° 86° (E) 13:06:55 437.305
AISAT 17 Jan 13:05:49 13:10:15 83° 104° (ESE) 13:14:39 437.250
DANDE 17 Jan 13:10:22 13:12:39 12° 45° (NE) 13:15:01 436.750
ESTCUBE 1 17 Jan 13:13:30 13:17:45 39° 294° (WNW) 13:21:58 437.505/2401.250
Cosmos 2491 17 Jan 13:28:10 13:36:50 58° 72° (ENE) 13:45:28 435.465 / 435.565
AIST 1 17 Jan 13:34:34 13:35:54 11° 80° (E) 13:37:12
VELOX 1 17 Jan 13:39:34 13:43:52 51° 291° (WNW) 13:48:08 145.980
YUBILEINY 17 Jan 13:44:11 13:50:59 26° 77° (ENE) 13:57:49 435.215
Gurwin Techsat 1B 17 Jan 13:45:38 13:50:57 80° 255° (WSW) 13:56:19 435.225
SO-50 17 Jan 13:55:16 13:58:02 15° 1° (N) 14:00:46 436.795
Oscar 19 17 Jan 13:59:33 14:04:20 37° 264° (W) 14:09:10 437.125/150
50 SAT 17 Jan 14:09:38 14:12:36 25° 295° (WNW) 14:15:32 437.505
AO-7 17 Jan 14:09:44 14:17:44 53° 58° (ENE) 14:25:46 29.400- 29.500
DX 1 17 Jan 14:23:10 14:27:12 38° 294° (WNW) 14:31:14 434.975-435.025
UKube-1 17 Jan 14:29:00 14:33:07 43° 292° (WNW) 14:37:12 .
ITAMSAT 1 17 Jan 14:34:21 14:39:29 68° 70° (ENE) 14:44:38 435.822/435.867
SPROUT 17 Jan 14:34:29 14:37:43 21° 299° (WNW) 14:40:57 437.525
CUSAT 1 17 Jan 14:34:30 14:42:20 68° 73° (ENE) 14:50:09 437.405
AO-85 17 Jan 14:34:56 14:37:56 17° 114° (ESE) 14:40:48 145.980
CUBEBUG 1 17 Jan 14:36:41 14:38:35 13° 306° (NW) 14:40:28 437.445
TISAT 1 17 Jan 14:37:57 14:42:09 87° 102° (ESE) 14:46:19 437.305
ITUPSAT 1 17 Jan 14:41:17 14:45:08 23° 92° (E) 14:48:58 437.325
AISAT 17 Jan 14:43:31 14:46:08 16° 304° (NW) 14:48:46 437.250
DANDE 17 Jan 14:50:35 14:57:13 41° 67° (ENE) 15:04:51 436.750
O/OREOS (USA 219) 17 Jan 14:56:55 14:59:10 13° 36° (NE) 15:01:25 437.305
BRITE-PL 17 Jan 14:58:46 15:02:23 18° 54° (NE) 15:05:58 437.365/2234.400
Cosmos 2504 17 Jan 15:08:02 15:16:01 43° 87° (E) 15:23:34 435.465 / 435.565
AIST 1 17 Jan 15:08:21 15:12:45 88° 94° (E) 15:17:08
BEESAT 17 Jan 15:17:45 15:22:24 48° 100° (E) 15:27:01 436.000
SWISSCUBE 17 Jan 15:19:00 15:23:43 54° 101° (E) 15:28:25 437.505
GOMX 1 17 Jan 15:21:52 15:23:45 12° 51° (NE) 15:25:37 467.674
Cosmos 2491 17 Jan 15:25:27 15:33:24 40° 275° (W) 15:41:21 435.465 / 435.565
HORYU 2 17 Jan 15:26:21 15:27:57 12° 52° (NE) 15:29:32 437.375
Gurwin Techsat 1B 17 Jan 15:29:10 15:31:47 14° 275° (W) 15:34:25 435.225
SO-50 17 Jan 15:36:17 15:40:01 24° 25° (NNE) 15:43:44 436.795
YUBILEINY 17 Jan 15:37:53 15:46:44 86° 280° (W) 15:55:40 435.215
MOZHAYETS 4 17 Jan 15:42:55 15:47:01 30° 94° (E) 15:51:05
AO-7 17 Jan 16:02:37 16:10:36 48° 260° (W) 16:18:42 29.400- 29.500
Cubesat XI-IV 17 Jan 16:05:42 16:08:28 14° 50° (NE) 16:11:15 437.490
AO-85 17 Jan 16:13:16 16:17:54 83° 312° (NW) 16:22:10 145.980
TISAT 1 17 Jan 16:15:02 16:17:11 14° 304° (NW) 16:19:20 437.305
ITAMSAT 1 17 Jan 16:15:38 16:19:27 21° 270° (W) 16:23:18 435.822/435.867
CUSAT 1 17 Jan 16:16:58 16:23:52 35° 273° (W) 16:30:44 437.405
DOVE 4 17 Jan 16:17:05 16:19:27 14° 55° (NE) 16:21:46 437.250
ITUPSAT 1 17 Jan 16:18:35 16:23:17 54° 291° (WNW) 16:27:59 437.325
AUBIESAT-1 17 Jan 16:19:27 16:21:29 15° 96° (E) 16:23:28 437.475
LilacSat-2 17 Jan 16:20:25 16:21:09 10° 56° (NE) 16:21:53 437.200
CUBESAT XI-V 17 Jan 16:20:55 16:23:17 14° 86° (E) 16:25:39 437.345
NOAA 15 17 Jan 16:25:12 16:29:01 21° 55° (NE) 16:32:51 137.62
DANDE 17 Jan 16:33:11 16:40:13 59° 264° (W) 16:48:18 436.750
BRITE-PL 17 Jan 16:34:21 16:40:03 77° 73° (ENE) 16:45:41 437.365/2234.400
O/OREOS (USA 219) 17 Jan 16:35:06 16:39:34 59° 58° (ENE) 16:44:01 437.305
KKS-1 17 Jan 16:46:30 16:50:41 39° 98° (E) 16:54:50 437.445
AIST 1 17 Jan 16:48:51 16:51:02 13° 300° (WNW) 16:53:12
GOMX 1 17 Jan 16:55:35 17:00:52 56° 70° (ENE) 17:05:55 467.674
BEESAT 17 Jan 16:55:57 16:59:59 28° 299° (WNW) 17:04:01 436.000
SWISSCUBE 17 Jan 16:57:20 17:01:14 25° 300° (WNW) 17:05:07 437.505
HORYU 2 17 Jan 16:59:19 17:03:42 69° 72° (ENE) 17:08:07 437.375
Cosmos 2504 17 Jan 17:00:51 17:09:17 54° 288° (WNW) 17:17:15 435.465 / 435.565
CUTE-I 17 Jan 17:00:56 17:05:39 34° 62° (ENE) 17:10:24 437.470
M-CUBED/EXP-1 PRIME 17 Jan 17:13:15 17:16:47 75° 109° (ESE) 17:20:06 437.505
HO-68 17 Jan 17:16:04 17:21:15 22° 46° (NE) 17:26:26 435.675
SO-50 17 Jan 17:16:34 17:21:08 84° 48° (NE) 17:25:38 436.795
MOZHAYETS 4 17 Jan 17:19:56 17:24:17 40° 293° (WNW) 17:28:36
NOAA 18 17 Jan 17:21:04 17:25:53 32° 60° (ENE) 17:30:41 137.9125
YUBILEINY 17 Jan 17:37:56 17:44:59 26° 305° (NW) 17:52:06 435.215
CANX-2 17 Jan 17:40:49 17:42:35 12° 55° (NE) 17:44:22 2200.000
Cubesat XI-IV 17 Jan 17:42:21 17:47:38 67° 70° (ENE) 17:52:55 437.490
BEESAT 3 17 Jan 17:46:00 17:49:34 35° 121° (ESE) 17:53:11 437.485
STARS 17 Jan 17:48:41 17:53:05 76° 104° (ESE) 17:57:27 437.465
LilacSat-2 17 Jan 17:51:00 17:54:45 80° 77° (ENE) 17:58:35 437.200
DOVE 4 17 Jan 17:51:27 17:56:26 74° 74° (ENE) 18:01:12 437.250
AUBIESAT-1 17 Jan 17:52:53 17:56:16 47° 296° (WNW) 17:59:29 437.475
AO-85 17 Jan 17:55:25 17:58:52 22° 332° (NNW) 18:02:10 145.980
CUBESAT XI-V 17 Jan 17:56:36 18:01:22 89° 286° (WNW) 18:06:04 437.345
ITUPSAT 1 17 Jan 17:59:02 18:00:07 11° 311° (NW) 18:01:12 437.325
SEEDS 17 Jan 17:59:08 18:00:31 11° 54° (NE) 18:01:54 437.485
NOAA 15 17 Jan 18:02:54 18:08:12 82° 255° (WSW) 18:13:34 137.62
CINEMA 3 17 Jan 18:07:29 18:11:16 29° 65° (ENE) 18:14:57 145.822/145.860
COMPASS 1 17 Jan 18:11:31 18:12:10 10° 53° (NE) 18:12:49 437.405
BRITE-PL 17 Jan 18:14:49 18:19:03 21° 272° (W) 18:23:17 437.365/2234.400
O/OREOS (USA 219) 17 Jan 18:15:17 18:18:35 20° 257° (WSW) 18:21:53 437.305
DANDE 17 Jan 18:18:04 18:21:50 15° 282° (WNW) 18:25:51 436.750
KKS-1 17 Jan 18:23:19 18:27:08 29° 297° (WNW) 18:30:56 437.445
BEESAT 2 17 Jan 18:23:37 18:27:17 38° 122° (ESE) 18:31:02 435.950
AAUSAT CUBESAT 2 17 Jan 18:25:30 18:26:42 11° 54° (NE) 18:27:56 437.432
GOMX 1 17 Jan 18:34:41 18:39:12 27° 268° (W) 18:43:36 467.674
GONETS M04 17 Jan 18:35:09 18:38:31 13° 66° (ENE) 18:41:53
HORYU 2 17 Jan 18:37:59 18:40:45 16° 271° (W) 18:43:31 437.375
CUTE-I 17 Jan 18:40:32 18:45:36 45° 261° (W) 18:50:43 437.470
CUTE 1.7 + AOD 2 17 Jan 18:45:19 18:49:13 37° 68° (ENE) 18:53:12 437.475
M-CUBED/EXP-1 PRIME 17 Jan 18:49:06 18:50:45 13° 310° (NW) 18:52:20 437.505
SO-50 17 Jan 18:58:08 19:01:00 17° 248° (WSW) 19:03:51 436.795
Cosmos 2504 17 Jan 19:00:09 19:04:49 15° 313° (NW) 19:09:20 435.465 / 435.565
HO-68 17 Jan 19:00:45 19:07:56 75° 68° (ENE) 19:15:08 435.675
NOAA 18 17 Jan 19:01:00 19:06:21 51° 260° (W) 19:11:43 137.9125
CANX-2 17 Jan 19:13:28 19:17:43 79° 73° (ENE) 19:22:02 2200.000
CUBEBUG 2 17 Jan 19:23:13 19:27:06 39° 68° (ENE) 19:30:59 437.445
BEESAT 3 17 Jan 19:23:30 19:27:10 37° 321° (NW) 19:30:55 437.485
Cubesat XI-IV 17 Jan 19:24:08 19:28:11 22° 269° (W) 19:32:16 437.490
STARS 17 Jan 19:26:08 19:28:55 17° 303° (WNW) 19:31:42 437.465
LilacSat-2 17 Jan 19:28:39 19:29:37 11° 273° (W) 19:30:35 437.200
Cosmos 2499 17 Jan 19:30:56 19:38:05 33° 84° (E) 19:44:50 435.465 / 435.565
Oscar 11 17 Jan 19:31:08 19:34:18 20° 60° (ENE) 19:37:30 145.826/435.025
SEEDS 17 Jan 19:31:14 19:35:26 73° 74° (ENE) 19:39:42 437.485
DOVE 4 17 Jan 19:31:15 19:34:35 18° 271° (W) 19:37:51 437.250
CUBESAT XI-V 17 Jan 19:35:17 19:38:05 16° 305° (NW) 19:40:51 437.345
AO-85 17 Jan 19:38:54 19:40:44 13° 357° (N) 19:42:34 145.980
COMPASS 1 17 Jan 19:42:44 19:46:54 65° 72° (ENE) 19:51:05 437.405
CINEMA 3 17 Jan 19:44:12 19:48:20 37° 263° (W) 19:52:21 145.822/145.860
NOAA 15 17 Jan 19:46:06 19:48:50 14° 274° (W) 19:51:36 137.62
AAUSAT CUBESAT 2 17 Jan 19:57:15 20:01:25 72° 73° (ENE) 20:05:37 437.432
AIST 2 17 Jan 19:57:34 19:57:45 10° 108° (ESE) 19:57:57 435.215
UWE-3 17 Jan 19:58:02 20:02:06 57° 71° (ENE) 20:06:10 435.000/436.395/437.385
BEESAT 2 17 Jan 20:01:25 20:05:06 36° 322° (NW) 20:08:52 435.950
FUNcube-1 17 Jan 20:02:51 20:06:40 37° 67° (ENE) 20:10:31 145.935
STRAND 1 17 Jan 20:03:08 20:08:12 57° 101° (E) 20:13:16 437.568
DELFI C3 17 Jan 20:08:25 20:11:00 17° 59° (ENE) 20:13:35 145.870
CUTE 1.7 + AOD 2 17 Jan 20:21:32 20:25:10 27° 266° (W) 20:28:51 437.475
ZACube-1 17 Jan 20:23:47 20:27:53 64° 72° (ENE) 20:32:01 437.345
GONETS M04 17 Jan 20:24:50 20:33:13 55° 90° (E) 20:41:41
HO-68 17 Jan 20:50:21 20:56:20 28° 269° (W) 21:02:21 435.675
CANX-2 17 Jan 20:52:02 20:54:09 13° 273° (W) 20:56:17 2200.000
CUBEBUG 2 17 Jan 21:00:27 21:03:54 24° 267° (W) 21:07:19 437.445
HUMSAT D 17 Jan 21:02:21 21:05:58 31° 66° (ENE) 21:09:39 437.325/437.525
BEESAT 3 17 Jan 21:03:40 21:05:51 14° 344° (NNW) 21:08:02 437.485
Oscar 11 17 Jan 21:05:49 21:10:04 58° 259° (W) 21:14:23 145.826/435.025
SEEDS 17 Jan 21:09:18 21:11:39 14° 272° (W) 21:14:01 437.485
AO-85 17 Jan 21:19:54 21:22:44 18° 22° (NNE) 21:25:29 145.980
COMPASS 1 17 Jan 21:20:18 21:22:53 16° 271° (W) 21:25:29 437.405
PRISM 17 Jan 21:21:24 21:24:39 22° 93° (E) 21:27:52 437.425
Cosmos 2499 17 Jan 21:22:24 21:30:47 67° 284° (WNW) 21:38:34 435.465 / 435.565
BY70-1 17 Jan 21:23:08 21:24:16 12° 58° (ENE) 21:25:26 436.1900
AIST 2 17 Jan 21:31:18 21:35:24 68° 127° (SE) 21:39:36 435.215
AAUSAT CUBESAT 2 17 Jan 21:35:04 21:37:23 14° 272° (W) 21:39:43 437.432
UWE-3 17 Jan 21:36:10 21:38:57 17° 270° (W) 21:41:44 435.000/436.395/437.385
FUNcube-1 17 Jan 21:39:34 21:43:02 26° 267° (W) 21:46:32 145.935
DELFI C3 17 Jan 21:41:23 21:45:22 65° 259° (WSW) 21:49:24 145.870
BEESAT 2 17 Jan 21:41:47 21:44:00 14° 345° (NNW) 21:46:13 435.950
STRAND 1 17 Jan 21:42:52 21:47:05 26° 301° (WNW) 21:51:17 437.568
ZACube-1 17 Jan 22:02:09 22:04:38 15° 271° (W) 22:07:08 437.345
GONETS M04 17 Jan 22:22:09 22:30:20 43° 294° (WNW) 22:38:39
SPROUT 17 Jan 22:23:21 22:24:58 12° 54° (NE) 22:26:36 437.525
CUBEBUG 1 17 Jan 22:24:08 22:27:37 23° 61° (ENE) 22:31:06 437.445
UNISAT 6 17 Jan 22:24:59 22:28:59 33° 96° (E) 22:33:01 437.425
JAS-2 17 Jan 22:25:32 22:30:44 22° 88° (E) 22:36:14 435.910
AISAT 17 Jan 22:32:52 22:36:09 21° 59° (ENE) 22:39:27 437.250
HUMSAT D 17 Jan 22:37:54 22:41:35 31° 265° (W) 22:45:19 437.325/437.525
TIGRISAT 17 Jan 22:39:11 22:43:21 42° 99° (E) 22:47:35 435.000
ESTCUBE 1 17 Jan 22:40:57 22:45:19 49° 69° (ENE) 22:49:43 437.505/2401.250
BEESAT 3 17 Jan 22:43:24 22:45:05 12° 8° (N) 22:46:45 437.485
BY70-1 17 Jan 22:51:08 22:54:08 64° 260° (W) 22:57:23 436.1900
ANTELSAT 17 Jan 22:53:33 22:57:54 61° 101° (ESE) 23:02:20 437.575/2403.000
PRISM 17 Jan 22:56:12 23:00:10 44° 291° (WNW) 23:04:04 437.425
AO-85 17 Jan 22:59:56 23:03:55 64° 46° (NE) 23:07:47 145.980
VELOX 1 17 Jan 23:05:27 23:09:31 36° 66° (ENE) 23:13:36 145.980
AIST 2 17 Jan 23:10:42 23:14:16 26° 329° (NNW) 23:17:53 435.215
50 SAT 17 Jan 23:15:43 23:18:50 29° 67° (ENE) 23:22:00 437.505
Cosmos 2499 17 Jan 23:20:12 23:25:32 18° 308° (NW) 23:30:40 435.465 / 435.565
POPSAT HIP 1 17 Jan 23:21:08 23:23:27 14° 88° (E) 23:25:46 437.405
BEESAT 2 17 Jan 23:21:34 23:23:24 13° 9° (N) 23:25:14 435.950
DUCHIFAT 1 17 Jan 23:35:20 23:38:08 17° 90° (E) 23:40:56 145.980
NANOSAT C BR1 17 Jan 23:39:03 23:42:12 20° 92° (E) 23:45:20 145.865
YUBILEINY 17 Jan 23:45:39 23:51:37 19° 48° (NE) 23:57:32 435.215
DX 1 17 Jan 23:47:11 23:51:22 46° 68° (ENE) 23:55:35 434.975-435.025
UKube-1 17 Jan 23:52:20 23:56:22 40° 67° (ENE) 00:00:26 .
ISS 17 Jan 23:52:48 23:54:54 16° 141° (SE) 23:56:59 145.825
SPROUT 17 Jan 23:55:56 00:00:11 76° 72° (ENE) 00:04:26 437.525
CUBEBUG 1 17 Jan 23:59:20 00:03:38 50° 260° (W) 00:07:57 437.445
RS-15 18 Jan 00:00:07 00:10:51 42° 109° (ESE) 00:21:54 29.354- 29.394
TISAT 1 18 Jan 00:00:19 00:03:07 18° 59° (ENE) 00:05:56 437.305
UNISAT 6 18 Jan 00:01:46 00:05:41 33° 294° (WNW) 00:09:40 437.425
AISAT 18 Jan 00:07:51 00:12:15 60° 258° (WSW) 00:16:41 437.250
JAS-2 18 Jan 00:09:38 00:16:31 88° 106° (ESE) 00:24:08 435.910
TIGRISAT 18 Jan 00:16:14 00:19:54 27° 297° (WNW) 00:23:37 435.000
ESTCUBE 1 18 Jan 00:18:44 00:22:22 23° 268° (W) 00:26:02 437.505/2401.250
BEESAT 3 18 Jan 00:20:39 00:24:00 25° 32° (NNE) 00:27:21 437.485
BUGSAT 1 18 Jan 00:21:48 00:24:41 19° 92° (E) 00:27:33 437.445
GONETS M04 18 Jan 00:26:32 00:30:14 13° 322° (NW) 00:33:57
QB50P1 18 Jan 00:28:51 00:33:03 64° 102° (ESE) 00:37:15 145.935-145.965
ANTELSAT 18 Jan 00:31:05 00:34:16 20° 300° (WNW) 00:37:29 437.575/2403.000
POLYITAN 1 18 Jan 00:32:03 00:36:17 69° 102° (ESE) 00:40:30 437.675
QB50P2 18 Jan 00:33:11 00:37:26 76° 104° (ESE) 00:41:40 145.880/145.840
AO-85 18 Jan 00:41:10 00:43:52 18° 245° (WSW) 00:46:33 145.980
VELOX 1 18 Jan 00:42:03 00:46:01 31° 264° (W) 00:50:00 145.980
Cosmos 2491 18 Jan 00:46:10 00:49:22 13° 66° (ENE) 00:52:35 435.465 / 435.565
50 SAT 18 Jan 00:49:02 00:52:04 26° 265° (W) 00:55:08 437.505
AIST 2 18 Jan 00:51:58 00:54:07 13° 352° (N) 00:56:14 435.215
BEESAT 18 Jan 00:53:32 00:56:35 17° 55° (NE) 00:59:40 436.000
SWISSCUBE 18 Jan 00:54:32 00:57:51 19° 56° (ENE) 01:01:10 437.505
Cosmos 2504 18 Jan 00:54:37 01:00:10 21° 53° (NE) 01:05:28 435.465 / 435.565
POPSAT HIP 1 18 Jan 00:55:31 00:59:44 73° 287° (WNW) 01:03:56 437.405
BEESAT 2 18 Jan 00:59:00 01:02:29 26° 32° (NNE) 01:05:57 435.950
DUCHIFAT 1 18 Jan 01:10:04 01:14:12 59° 289° (WNW) 01:18:19 145.980
AIST 1 18 Jan 01:10:06 01:14:07 37° 72° (ENE) 01:18:05
NANOSAT C BR1 18 Jan 01:14:07 01:18:12 50° 290° (WNW) 01:22:16 145.865
PCSat 18 Jan 01:22:07 01:26:31 26° 111° (ESE) 01:30:58 145.827
DX 1 18 Jan 01:24:15 01:27:47 23° 267° (W) 01:31:19 434.975-435.025
ISS 18 Jan 01:27:42 01:30:54 59° 160° (SSE) 01:34:07 145.825
UKube-1 18 Jan 01:28:51 01:32:32 27° 265° (W) 01:36:14 .
TISAT 1 18 Jan 01:34:11 01:38:20 64° 257° (WSW) 01:42:30 437.305
SPROUT 18 Jan 01:34:25 01:36:38 14° 272° (W) 01:38:52 437.525
YUBILEINY 18 Jan 01:41:44 01:50:33 65° 74° (ENE) 01:59:16 435.215
ITUPSAT 1 18 Jan 01:52:40 01:57:13 47° 67° (ENE) 02:01:49 437.325
JAS-2 18 Jan 01:55:34 02:00:56 26° 305° (NW) 02:06:46 435.910
BUGSAT 1 18 Jan 01:56:27 02:00:20 50° 290° (WNW) 02:04:15 437.445
Gurwin Techsat 1B 18 Jan 01:56:53 02:01:26 28° 93° (E) 02:05:57 435.225
BEESAT 3 18 Jan 01:58:00 02:02:00 69° 232° (SW) 02:05:58 437.485
Oscar 19 18 Jan 02:05:11 02:10:18 54° 100° (E) 02:15:21 437.125/150
QB50P1 18 Jan 02:05:33 02:08:24 18° 301° (WNW) 02:11:16 145.935-145.965
POLYITAN 1 18 Jan 02:08:53 02:11:36 17° 302° (WNW) 02:14:21 437.675
QB50P2 18 Jan 02:10:09 02:12:43 16° 302° (WNW) 02:15:17 145.880/145.840
RS-15 18 Jan 02:10:24 02:22:30 79° 315° (NW) 02:35:00 29.354- 29.394
KKS-1 18 Jan 02:16:10 02:17:48 12° 52° (NE) 02:19:26 437.445
BEESAT 18 Jan 02:29:00 02:33:46 85° 255° (WSW) 02:38:34 436.000
M-CUBED/EXP-1 PRIME 18 Jan 02:29:28 02:33:16 31° 60° (ENE) 02:36:52 437.505
SWISSCUBE 18 Jan 02:30:22 02:35:07 76° 255° (WSW) 02:39:55 437.505
AIST 2 18 Jan 02:31:35 02:34:13 16° 17° (NNE) 02:36:51 435.215
POPSAT HIP 1 18 Jan 02:33:26 02:34:46 11° 306° (NW) 02:36:06 437.405
Cosmos 2491 18 Jan 02:35:43 02:44:05 55° 90° (E) 02:52:29 435.465 / 435.565
BEESAT 2 18 Jan 02:36:35 02:40:36 64° 233° (SW) 02:44:36 435.950
ITAMSAT 1 18 Jan 02:43:01 02:46:12 16° 88° (E) 02:49:23 435.822/435.867
Cosmos 2504 18 Jan 02:47:19 02:54:59 82° 79° (E) 03:02:13 435.465 / 435.565
AIST 1 18 Jan 02:48:01 02:51:34 26° 272° (W) 02:55:06
MOZHAYETS 4 18 Jan 02:49:28 02:53:52 50° 69° (ENE) 02:58:20
ISS 18 Jan 03:04:06 03:07:22 80° 360° (N) 03:10:38 145.825
PCSat 18 Jan 03:04:07 03:09:32 67° 311° (NW) 03:14:58 145.827
AUBIESAT-1 18 Jan 03:08:09 03:12:19 56° 65° (ENE) 03:16:14 437.475
STARS 18 Jan 03:15:23 03:18:28 19° 58° (ENE) 03:21:33 437.465
CUBESAT XI-V 18 Jan 03:28:29 03:32:18 25° 61° (ENE) 03:36:07 437.345
ITUPSAT 1 18 Jan 03:31:17 03:35:17 26° 267° (W) 03:39:19 437.325
Gurwin Techsat 1B 18 Jan 03:36:30 03:41:40 53° 293° (WNW) 03:46:49 435.225
YUBILEINY 18 Jan 03:39:07 03:46:53 36° 277° (W) 03:54:37 435.215
CUSAT 1 18 Jan 03:41:49 03:46:41 42° 89° (E) 03:52:54 437.405
Oscar 19 18 Jan 03:44:59 03:49:21 28° 300° (WNW) 03:53:41 437.125/150
KKS-1 18 Jan 03:49:08 03:53:34 69° 72° (ENE) 03:58:00 437.445
AO-7 18 Jan 03:57:44 04:05:42 45° 99° (E) 04:13:36 29.400- 29.500
M-CUBED/EXP-1 PRIME 18 Jan 04:03:37 04:07:41 37° 256° (WSW) 04:11:32 437.505
DANDE 18 Jan 04:07:21 04:10:03 17° 79° (E) 04:13:15 436.750
AIST 2 18 Jan 04:09:42 04:13:45 41° 39° (NE) 04:17:48 435.215
BEESAT 18 Jan 04:10:11 04:12:18 13° 274° (W) 04:14:26 436.000
SWISSCUBE 18 Jan 04:12:21 04:13:46 11° 275° (W) 04:15:11 437.505
ITAMSAT 1 18 Jan 04:21:09 04:26:23 87° 286° (WNW) 04:31:37 435.822/435.867
RS-15 18 Jan 04:25:23 04:37:04 46° 346° (NNW) 04:48:53 29.354- 29.394
MOZHAYETS 4 18 Jan 04:27:39 04:31:19 23° 268° (W) 04:35:01
Cosmos 2491 18 Jan 04:32:59 04:41:12 44° 293° (WNW) 04:49:28 435.465 / 435.565
GONETS M04 18 Jan 04:33:32 04:36:04 11° 34° (NE) 04:38:36
BRITE-PL 18 Jan 04:35:39 04:39:01 18° 86° (E) 04:42:13 437.365/2234.400
ISS 18 Jan 04:40:37 04:43:51 62° 200° (SSW) 04:47:04 145.825
Cosmos 2504 18 Jan 04:41:49 04:47:24 23° 282° (WNW) 04:52:47 435.465 / 435.565
AUBIESAT-1 18 Jan 04:43:53 04:46:57 19° 261° (W) 04:49:55 437.475
PCSat 18 Jan 04:49:42 04:53:56 22° 334° (NNW) 04:58:10 145.827
STARS 18 Jan 04:50:03 04:54:24 65° 257° (WSW) 04:58:46 437.465
CUBESAT XI-V 18 Jan 05:04:48 05:09:24 53° 261° (W) 05:14:02 437.345
Cosmos 2499 18 Jan 05:15:44 05:19:54 16° 48° (NE) 05:23:58 435.465 / 435.565
Gurwin Techsat 1B 18 Jan 05:18:43 05:20:30 12° 313° (NW) 05:22:17 435.225
